TimeCST,TemperatureF,Dew PointF,Humidity,Sea Level PressureIn,VisibilityMPH,Wind Direction,Wind SpeedMPH,Gust SpeedMPH,PrecipitationIn,Events,Conditions,WindDirDegrees,DateUTC
12:15 AM,35.6,28.4,75,30.28,10.0,North,9.2,-,N/A,,Clear,350,2013-01-24 06:15:00
12:35 AM,37.4,26.6,65,30.28,10.0,North,9.2,-,N/A,,Clear,360,2013-01-24 06:35:00
12:55 AM,35.6,24.8,65,30.29,10.0,North,10.4,-,N/A,,Clear,360,2013-01-24 06:55:00
1:15 AM,35.6,23.0,60,30.31,10.0,North,15.0,19.6,N/A,,Clear,350,2013-01-24 07:15:00
1:35 AM,35.6,23.0,60,30.32,10.0,North,11.5,18.4,N/A,,Clear,360,2013-01-24 07:35:00
1:55 AM,33.8,21.2,60,30.33,10.0,North,12.7,20.7,N/A,,Clear,360,2013-01-24 07:55:00
2:15 AM,33.8,21.2,60,30.34,10.0,North,12.7,18.4,N/A,,Clear,360,2013-01-24 08:15:00
2:35 AM,33.8,21.2,60,30.35,10.0,North,13.8,21.9,N/A,,Clear,360,2013-01-24 08:35:00
2:55 AM,32.0,19.4,60,30.35,10.0,North,12.7,19.6,N/A,,Clear,360,2013-01-24 08:55:00
3:15 AM,32.0,17.6,55,30.35,10.0,North,20.7,26.5,N/A,,Clear,10,2013-01-24 09:15:00
3:35 AM,32.0,17.6,55,30.36,10.0,North,16.1,24.2,N/A,,Clear,360,2013-01-24 09:35:00
3:55 AM,30.2,19.4,64,30.37,10.0,North,17.3,24.2,N/A,,Clear,360,2013-01-24 09:55:00
4:15 AM,30.2,19.4,64,30.38,10.0,North,15.0,25.3,N/A,,Clear,360,2013-01-24 10:15:00
4:35 AM,30.2,19.4,64,30.39,10.0,North,11.5,17.3,N/A,,Clear,10,2013-01-24 10:35:00
4:55 AM,28.4,19.4,69,30.41,10.0,North,20.7,26.5,N/A,,Clear,10,2013-01-24 10:55:00
5:15 AM,28.4,15.8,59,30.41,10.0,North,13.8,20.7,N/A,,Clear,10,2013-01-24 11:15:00
5:35 AM,28.4,15.8,59,30.43,10.0,North,15.0,19.6,N/A,,Clear,10,2013-01-24 11:35:00
5:55 AM,26.6,15.8,64,30.45,10.0,North,11.5,18.4,N/A,,Clear,10,2013-01-24 11:55:00
6:15 AM,26.6,15.8,64,30.46,10.0,NNE,11.5,-,N/A,,Clear,20,2013-01-24 12:15:00
6:35 AM,26.6,15.8,64,30.47,10.0,NNE,16.1,23.0,N/A,,Clear,30,2013-01-24 12:35:00
6:55 AM,26.6,15.8,64,30.48,10.0,NNE,16.1,25.3,N/A,,Clear,30,2013-01-24 12:55:00
7:15 AM,24.8,14.0,64,30.48,10.0,NNE,12.7,-,N/A,,Clear,30,2013-01-24 13:15:00
7:35 AM,24.8,14.0,64,30.49,10.0,NE,16.1,24.2,N/A,,Clear,40,2013-01-24 13:35:00
7:55 AM,24.8,12.2,59,30.50,10.0,NE,12.7,20.7,N/A,,Clear,40,2013-01-24 13:55:00
8:15 AM,24.8,12.2,59,30.50,10.0,NE,13.8,-,N/A,,Clear,40,2013-01-24 14:15:00
8:35 AM,24.8,12.2,59,30.52,10.0,NNE,18.4,-,N/A,,Clear,30,2013-01-24 14:35:00
8:55 AM,26.6,12.2,55,30.53,10.0,NNE,13.8,-,N/A,,Clear,30,2013-01-24 14:55:00
9:15 AM,26.6,12.2,55,30.54,10.0,NE,16.1,19.6,N/A,,Clear,40,2013-01-24 15:15:00
9:35 AM,26.6,12.2,55,30.55,10.0,NE,16.1,20.7,N/A,,Clear,50,2013-01-24 15:35:00
9:55 AM,26.6,10.4,51,30.56,10.0,NE,18.4,-,N/A,,Clear,50,2013-01-24 15:55:00
10:15 AM,28.4,10.4,47,30.56,10.0,NE,15.0,21.9,N/A,,Clear,50,2013-01-24 16:15:00
10:35 AM,30.2,8.6,40,30.57,10.0,NE,16.1,19.6,N/A,,Clear,40,2013-01-24 16:35:00
10:55 AM,30.2,8.6,40,30.56,10.0,NE,16.1,-,N/A,,Clear,50,2013-01-24 16:55:00
11:15 AM,30.2,8.6,40,30.55,10.0,NE,13.8,-,N/A,,Clear,50,2013-01-24 17:15:00
11:35 AM,32.0,10.4,41,30.53,10.0,ENE,15.0,20.7,N/A,,Clear,60,2013-01-24 17:35:00
11:55 AM,32.0,10.4,41,30.53,10.0,NE,15.0,19.6,N/A,,Clear,40,2013-01-24 17:55:00
12:15 PM,32.0,10.4,41,30.52,10.0,ENE,10.4,18.4,N/A,,Clear,60,2013-01-24 18:15:00
12:35 PM,32.0,12.2,44,30.50,10.0,ENE,11.5,-,N/A,,Clear,60,2013-01-24 18:35:00
12:55 PM,33.8,12.2,41,30.49,10.0,NE,11.5,-,N/A,,Clear,40,2013-01-24 18:55:00
1:15 PM,33.8,12.2,41,30.47,10.0,NE,13.8,17.3,N/A,,Clear,40,2013-01-24 19:15:00
1:35 PM,33.8,12.2,41,30.46,10.0,NE,16.1,20.7,N/A,,Clear,50,2013-01-24 19:35:00
1:55 PM,33.8,12.2,41,30.45,10.0,NE,13.8,17.3,N/A,,Clear,40,2013-01-24 19:55:00
2:15 PM,33.8,12.2,41,30.45,10.0,NE,10.4,18.4,N/A,,Clear,50,2013-01-24 20:15:00
2:35 PM,35.6,12.2,38,30.45,10.0,NE,11.5,-,N/A,,Clear,50,2013-01-24 20:35:00
2:55 PM,33.8,12.2,41,30.44,10.0,ENE,11.5,17.3,N/A,,Clear,60,2013-01-24 20:55:00
3:15 PM,33.8,14.0,44,30.42,10.0,ENE,10.4,18.4,N/A,,Clear,60,2013-01-24 21:15:00
3:35 PM,35.6,14.0,41,30.41,10.0,NE,12.7,-,N/A,,Clear,50,2013-01-24 21:35:00
3:55 PM,33.8,14.0,44,30.41,10.0,ENE,9.2,17.3,N/A,,Clear,60,2013-01-24 21:55:00
4:15 PM,33.8,14.0,44,30.41,10.0,ENE,10.4,-,N/A,,Scattered Clouds,60,2013-01-24 22:15:00
4:35 PM,33.8,14.0,44,30.41,10.0,ENE,9.2,-,N/A,,Scattered Clouds,70,2013-01-24 22:35:00
4:55 PM,33.8,14.0,44,30.41,10.0,ENE,10.4,-,N/A,,Mostly Cloudy,70,2013-01-24 22:55:00
5:15 PM,33.8,14.0,44,30.41,10.0,ENE,8.1,-,N/A,,Overcast,70,2013-01-24 23:15:00
5:35 PM,33.8,12.2,41,30.41,10.0,ENE,11.5,17.3,N/A,,Overcast,60,2013-01-24 23:35:00
5:55 PM,33.8,14.0,44,30.40,10.0,East,9.2,-,N/A,,Overcast,80,2013-01-24 23:55:00
6:15 PM,33.8,14.0,44,30.38,10.0,ENE,10.4,-,N/A,,Overcast,70,2013-01-25 00:15:00
6:35 PM,33.8,14.0,44,30.38,10.0,ENE,9.2,-,N/A,,Overcast,70,2013-01-25 00:35:00
6:55 PM,33.8,14.0,44,30.38,10.0,ENE,9.2,-,N/A,,Overcast,70,2013-01-25 00:55:00
7:15 PM,33.8,14.0,44,30.37,10.0,East,11.5,-,N/A,,Overcast,80,2013-01-25 01:15:00
7:35 PM,33.8,14.0,44,30.37,10.0,ENE,11.5,16.1,N/A,,Overcast,70,2013-01-25 01:35:00
7:55 PM,33.8,12.2,41,30.36,10.0,East,11.5,-,N/A,,Overcast,80,2013-01-25 01:55:00
8:15 PM,33.8,12.2,41,30.35,10.0,East,10.4,-,N/A,,Overcast,90,2013-01-25 02:15:00
8:35 PM,33.8,12.2,41,30.35,10.0,East,6.9,-,N/A,,Overcast,80,2013-01-25 02:35:00
8:55 PM,33.8,12.2,41,30.34,10.0,East,8.1,-,N/A,,Overcast,100,2013-01-25 02:55:00
9:15 PM,33.8,12.2,41,30.33,10.0,East,11.5,-,N/A,,Overcast,100,2013-01-25 03:15:00
9:35 PM,33.8,10.4,38,30.32,10.0,East,11.5,-,N/A,,Overcast,100,2013-01-25 03:35:00
9:55 PM,33.8,10.4,38,30.32,10.0,East,11.5,-,N/A,,Overcast,100,2013-01-25 03:55:00
10:15 PM,33.8,10.4,38,30.31,10.0,East,10.4,-,N/A,,Overcast,90,2013-01-25 04:15:00
10:35 PM,33.8,10.4,38,30.31,10.0,East,10.4,-,N/A,,Overcast,90,2013-01-25 04:35:00
10:55 PM,33.8,10.4,38,30.30,10.0,East,9.2,-,N/A,,Overcast,90,2013-01-25 04:55:00
11:15 PM,33.8,10.4,38,30.28,10.0,East,11.5,-,N/A,,Overcast,100,2013-01-25 05:15:00
11:35 PM,33.8,10.4,38,30.26,10.0,East,10.4,-,N/A,,Overcast,100,2013-01-25 05:35:00
11:55 PM,33.8,10.4,38,30.27,10.0,East,10.4,-,N/A,,Overcast,100,2013-01-25 05:55:00